Cutler
DateTemperatureDew Point
09/02 - 07:30 PM70.2°58.6°
09/02 - 07:15 PM72.7°59.2°
09/02 - 07:00 PM75.3°58.7°
09/02 - 06:45 PM77.6°57.1°
09/02 - 06:30 PM79.1°54.9°
09/02 - 06:15 PM80.7°53.7°
09/02 - 06:00 PM82.1°53.0°
09/02 - 05:45 PM83.1°52.8°
09/02 - 05:30 PM84.2°53.1°
09/02 - 05:15 PM84.7°54.0°
09/02 - 05:00 PM85.2°54.4°
09/02 - 04:45 PM85.4°54.7°
09/02 - 04:30 PM85.7°54.9°
09/02 - 04:15 PM85.6°54.6°
09/02 - 04:00 PM85.1°54.3°
09/02 - 03:45 PM84.8°55.0°
09/02 - 03:30 PM84.6°55.5°
09/02 - 03:15 PM84.0°55.3°
09/02 - 03:00 PM83.5°56.3°
09/02 - 02:45 PM83.1°56.3°
09/02 - 02:30 PM82.4°56.4°
09/02 - 02:15 PM81.6°55.5°
09/02 - 02:00 PM81.0°56.3°
09/02 - 01:45 PM80.0°56.0°
09/02 - 01:30 PM79.2°55.5°
09/02 - 01:15 PM78.6°55.4°
09/02 - 01:00 PM77.8°54.8°
09/02 - 12:45 PM77.6°55.4°
09/02 - 12:30 PM77.1°55.3°
09/02 - 12:15 PM76.2°55.2°
09/02 - 12:00 PM75.8°55.2°
09/02 - 11:45 AM74.9°54.8°
09/02 - 11:30 AM74.0°54.5°
09/02 - 11:15 AM73.8°54.8°
09/02 - 11:00 AM73.0°54.9°
09/02 - 10:45 AM71.8°54.6°
09/02 - 10:30 AM70.9°54.9°
09/02 - 10:15 AM69.6°54.2°
09/02 - 10:00 AM69.0°54.3°
09/02 - 09:45 AM67.6°54.7°
09/02 - 09:30 AM66.6°54.7°
09/02 - 09:15 AM65.3°54.8°
09/02 - 09:00 AM63.5°54.4°
09/02 - 08:45 AM63.0°54.3°
09/02 - 08:30 AM61.9°54.2°
09/02 - 08:15 AM60.3°54.1°
09/02 - 08:00 AM58.7°53.6°
09/02 - 07:45 AM56.7°53.6°
09/02 - 07:30 AM54.6°53.0°
09/02 - 07:15 AM53.2°51.5°
09/02 - 07:00 AM52.2°50.0°
09/02 - 06:45 AM51.9°49.1°
09/02 - 06:30 AM52.2°49.0°
09/02 - 06:15 AM52.6°49.4°
09/02 - 06:00 AM52.8°50.0°
09/02 - 05:45 AM52.5°50.2°
09/02 - 05:30 AM51.2°48.9°
09/02 - 05:15 AM50.7°47.3°
09/02 - 05:00 AM51.0°47.1°
09/02 - 04:45 AM51.4°47.5°
09/02 - 04:30 AM51.8°48.0°
09/02 - 04:15 AM52.2°48.5°
09/02 - 04:00 AM52.3°48.9°
09/02 - 03:45 AM52.2°48.7°
09/02 - 03:30 AM52.4°47.9°
09/02 - 03:15 AM53.2°48.0°
09/02 - 03:00 AM53.9°48.2°
09/02 - 02:45 AM54.3°48.2°
09/02 - 02:30 AM55.6°48.9°
09/02 - 02:15 AM56.6°49.5°
09/02 - 02:00 AM57.9°50.2°
09/02 - 01:45 AM58.7°50.0°
09/02 - 01:30 AM59.6°49.9°
09/02 - 01:15 AM60.6°50.0°
09/02 - 01:00 AM61.5°50.1°
09/02 - 12:45 AM62.7°50.5°
09/02 - 12:30 AM63.5°50.2°
09/02 - 12:15 AM64.3°50.1°
09/02 - 12:00 AM65.1°50.0°
09/01 - 11:45 PM65.5°49.7°
09/01 - 11:30 PM65.8°49.2°
09/01 - 11:15 PM65.9°48.7°
09/01 - 11:00 PM66.5°48.8°
09/01 - 10:45 PM66.9°48.8°
09/01 - 10:30 PM66.1°48.7°
09/01 - 10:15 PM62.8°49.4°
09/01 - 10:00 PM60.3°50.6°
09/01 - 09:45 PM59.6°51.0°
09/01 - 09:30 PM61.0°51.9°
09/01 - 09:15 PM61.9°52.1°
09/01 - 09:00 PM62.3°52.8°
09/01 - 08:45 PM62.8°53.1°
09/01 - 08:30 PM63.4°53.3°
09/01 - 08:15 PM63.9°53.8°
09/01 - 08:00 PM65.1°54.2°
09/01 - 07:45 PM67.3°54.6°
09/01 - 07:30 PM69.5°54.9°
09/01 - 07:15 PM71.6°55.3°
09/01 - 07:00 PM74.7°55.2°
09/01 - 06:45 PM77.1°52.9°
09/01 - 06:30 PM79.2°51.1°
09/01 - 06:15 PM80.5°49.5°
09/01 - 06:00 PM81.7°50.8°
09/01 - 05:45 PM83.0°50.8°
09/01 - 05:30 PM84.0°51.1°
09/01 - 05:15 PM84.2°51.6°
09/01 - 05:00 PM84.9°50.9°
09/01 - 04:45 PM85.7°50.1°
09/01 - 04:30 PM85.8°50.5°
09/01 - 04:15 PM86.2°51.5°
09/01 - 04:00 PM86.1°51.0°
09/01 - 03:45 PM86.6°51.9°
09/01 - 03:30 PM86.3°52.9°
09/01 - 03:15 PM85.2°52.9°
09/01 - 03:00 PM84.6°52.3°
09/01 - 02:45 PM84.4°53.2°
09/01 - 02:30 PM83.5°53.6°
09/01 - 02:15 PM82.7°53.7°
09/01 - 02:00 PM81.8°53.7°
09/01 - 01:45 PM81.1°53.7°
09/01 - 01:30 PM81.0°53.8°
09/01 - 01:15 PM80.4°54.7°
09/01 - 01:00 PM79.1°54.6°
09/01 - 12:45 PM78.1°55.1°
09/01 - 12:30 PM77.5°55.7°
09/01 - 12:15 PM77.0°56.7°
09/01 - 12:00 PM76.2°57.1°
09/01 - 11:45 AM75.5°57.8°
09/01 - 11:30 AM74.7°57.8°
09/01 - 11:15 AM73.4°57.5°
09/01 - 11:00 AM72.9°57.4°
09/01 - 10:45 AM71.7°57.0°
09/01 - 10:30 AM70.7°57.4°
09/01 - 10:15 AM69.4°56.7°
09/01 - 10:00 AM68.9°56.8°
09/01 - 09:45 AM67.8°56.6°
09/01 - 09:30 AM66.9°56.4°
09/01 - 09:15 AM65.0°55.3°
09/01 - 09:00 AM64.1°54.8°
09/01 - 08:45 AM62.9°54.4°
09/01 - 08:30 AM61.3°54.1°
09/01 - 08:15 AM60.1°54.1°
09/01 - 08:00 AM58.4°53.9°
09/01 - 07:45 AM56.7°54.3°
09/01 - 07:30 AM55.3°53.3°
09/01 - 07:15 AM54.2°51.8°
09/01 - 07:00 AM53.5°50.6°
09/01 - 06:45 AM53.1°49.7°
09/01 - 06:30 AM53.5°49.8°
09/01 - 06:15 AM54.1°50.1°
09/01 - 06:00 AM54.7°50.6°
09/01 - 05:45 AM55.7°50.5°
09/01 - 05:30 AM57.1°51.6°
09/01 - 05:15 AM58.2°52.7°
09/01 - 05:00 AM58.3°52.7°
09/01 - 04:45 AM58.6°53.0°
09/01 - 04:30 AM58.4°53.2°
09/01 - 04:15 AM58.9°53.1°
09/01 - 04:00 AM59.1°53.2°
09/01 - 03:45 AM59.8°53.5°
09/01 - 03:30 AM60.9°53.8°
09/01 - 03:15 AM61.8°54.1°
09/01 - 03:00 AM62.1°53.9°
09/01 - 02:45 AM62.9°54.0°
09/01 - 02:30 AM63.4°54.2°
09/01 - 02:15 AM63.6°54.4°
09/01 - 02:00 AM63.3°54.6°
09/01 - 01:45 AM63.8°54.6°
09/01 - 01:30 AM64.8°54.8°
09/01 - 01:15 AM65.8°54.6°
09/01 - 01:00 AM66.0°53.9°
09/01 - 12:45 AM66.2°53.7°
09/01 - 12:30 AM65.9°53.3°
09/01 - 12:15 AM66.3°53.3°
09/01 - 12:00 AM67.5°52.9°
08/31 - 11:45 PM67.7°52.3°
08/31 - 11:30 PM68.1°52.5°
08/31 - 11:15 PM69.0°53.0°
08/31 - 11:00 PM70.4°53.4°
08/31 - 10:45 PM71.9°53.3°
08/31 - 10:30 PM72.4°53.1°
08/31 - 10:15 PM71.0°52.9°
08/31 - 10:00 PM69.8°53.3°
08/31 - 09:45 PM68.6°54.0°
08/31 - 09:30 PM68.2°56.7°
08/31 - 09:15 PM68.6°56.2°
08/31 - 09:00 PM68.5°55.8°
08/31 - 08:45 PM69.0°56.3°
08/31 - 08:30 PM69.5°57.2°
08/31 - 08:15 PM69.7°57.3°